Temperature
29 29 28 29 30 30 30 29 29 30 31 30 29 28 28 27 27 27 27 26 25 23 22 21 20 19 19 18 18 18 17 17 17 16 16 16 16 16 16 15 15 15 15 15
29 29 30 31 31 30 29 29 29 30 31 30 29 29 29 28 27 27 26 26 25 23 22 21 20 19 19 18 18 18 17 17 17 16 16 16 16 16 15 15 15 15 14 14
29 30 31 30 30 29 29 29 29 29 29 30 29 28 28 28 27 27 26 26 25 23 22 21 20 19 19 18 18 17 17 17 16 16 16 15 15 15 15 15 14 14 14 14
30 30 30 30 29 29 28 29 29 29 28 28 28 27 27 27 27 27 26 26 25 24 22 21 20 19 19 18 18 17 17 17 16 16 16 15 15 15 15 15 14 14 14 14
29 30 29 29 29 29 29 30 29 29 28 27 27 27 26 26 26 26 26 25 24 23 22 21 20 19 19 18 18 17 17 16 16 16 15 15 15 15 15 14 14 14 14 14
29 30 30 29 30 30 29 29 29 29 28 26 26 25 25 25 25 25 25 24 24 23 22 21 20 19 19 18 17 17 17 16 16 16 15 15 15 14 14 14 14 14 14 14
28 29 30 30 29 29 28 27 26 25 25 25 26 25 24 25 25 25 25 24 23 22 22 20 20 19 18 18 17 17 16 16 16 15 15 15 15 14 14 14 14 14 13 13
26 26 28 28 28 27 27 26 24 23 23 25 25 24 24 25 25 24 24 24 23 22 21 20 20 19 18 18 17 17 16 16 15 15 15 14 14 14 14 14 14 13 13 13
25 25 27 28 28 28 27 27 27 25 25 24 24 24 24 25 24 23 24 23 22 21 21 20 19 19 18 17 17 16 16 15 15 15 14 14 14 14 14 14 13 13 13 13
25 24 26 27 27 27 27 27 25 24 22 22 23 23 23 23 23 23 23 23 22 21 21 20 19 18 17 17 17 16 16 15 15 15 14 14 14 14 13 13 13 13 13 13
25 23 24 26 25 25 26 26 25 24 23 22 22 22 24 23 22 22 22 22 21 21 20 19 18 18 17 16 16 16 15 15 14 14 14 14 13 13 13 13 13 13 13 13
24 23 22 24 26 26 26 25 24 22 22 23 22 22 23 22 22 21 21 20 21 20 19 18 18 17 17 16 16 15 15 15 14 14 14 13 13 13 13 13 12 12 12 12
22 21 21 22 24 25 24 25 25 24 23 22 21 22 23 21 21 21 20 20 19 19 19 18 17 17 16 16 15 15 15 15 14 14 14 13 13 13 13 12 12 12 12 12
22 21 20 20 21 22 22 23 24 23 22 22 22 22 22 21 21 20 20 19 19 19 18 17 16 16 16 16 15 15 15 14 14 14 14 13 13 13 13 12 12 12 12 12
22 21 21 21 22 22 23 23 23 23 22 22 22 22 21 21 21 20 20 19 18 18 18 17 16 16 16 15 15 15 15 14 14 14 14 13 13 13 12 12 12 12 12 12
21 20 20 20 22 22 22 22 23 22 22 22 22 21 21 21 20 20 19 18 18 18 17 16 16 16 16 15 15 15 14 14 14 14 13 13 13 13 12 12 12 12 12 12
21 20 19 20 21 21 21 22 22 22 22 21 20 20 21 20 20 19 18 18 17 17 16 16 16 16 15 15 15 14 14 14 14 14 13 13 13 13 12 12 12 12 12 12
20 19 19 19 20 19 20 22 22 21 21 21 20 20 20 19 19 18 18 17 16 16 16 15 15 15 15 14 14 14 13 13 14 13 13 13 13 13 12 12 12 12 12 12
21 19 19 19 19 19 20 21 21 20 20 20 19 19 19 19 18 18 17 16 16 16 15 15 15 15 14 14 14 14 13 13 13 13 13 13 13 12 12 12 12 12 12 12
21 20 19 18 18 18 19 20 20 20 19 19 19 19 18 18 18 17 16 16 15 15 15 15 15 14 14 14 14 13 13 13 13 13 13 13 13 12 12 12 12 12 12 12
19 19 19 18 17 19 19 20 20 18 17 18 18 18 17 17 16 16 15 15 15 15 15 14 14 14 14 14 13 13 13 13 13 13 13 13 13 12 12 12 12 12 12 12
19 18 18 18 17 18 19 19 18 17 17 17 17 17 16 16 15 15 15 15 14 14 14 14 14 14 14 13 13 13 13 13 13 13 13 12 12 12 12 12 12 12 12 12
18 18 17 17 17 18 18 18 17 17 17 17 17 16 16 16 15 15 15 14 14 14 14 14 14 14 13 13 13 13 13 13 13 13 12 12 12 12 12 12 12 12 12 12
18 18 18 18 18 18 18 17 17 17 17 17 16 16 16 15 15 15 15 14 14 14 14 14 14 14 13 13 13 13 13 13 12 12 12 12 12 12 12 12 12 12 12 12
17 17 17 17 18 18 17 17 16 17 16 16 16 16 16 15 15 15 14 14 14 14 14 14 14 14 13 13 13 13 13 12 12 12 12 12 12 13 13 13 13 13 13 13
17 17 16 17 17 16 16 16 16 16 16 16 16 16 16 15 15 15 14 14 14 14 14 14 14 14 13 13 13 13 13 12 12 12 12 13 13 13 13 13 13 13 13 13
Wind_Speed
10 10 10 9 9 10 11 12 12 12 8 8 10 8 6 6 8 6 7 6 6 7 8 9 8 9 8 7 7 7 6 6 4 3 3 3 3 2 2 2 2 2 3 3
10 11 10 8 9 10 12 13 13 10 8 9 11 11 8 7 8 6 6 7 7 7 8 8 8 8 8 7 7 8 7 6 5 3 2 2 2 2 3 2 2 2 2 3
9 8 7 8 9 11 11 12 13 13 13 13 13 13 7 5 4 5 5 6 7 7 8 8 8 8 8 8 8 7 6 6 5 4 3 2 2 2 1 2 2 2 2 1
9 8 8 9 10 11 12 12 13 15 14 12 12 11 4 3 4 5 4 4 6 7 7 7 7 8 9 8 7 7 7 6 6 5 4 4 3 3 2 2 2 1 1 2
10 9 10 11 11 11 14 15 16 17 16 15 13 12 5 4 4 3 2 1 3 5 6 5 7 8 8 8 8 7 7 6 5 4 4 3 2 2 1 1 2 2 1 1
12 10 9 10 11 11 13 14 16 15 13 13 10 9 6 1 2 2 2 2 3 3 5 4 5 7 7 7 7 8 8 6 5 4 3 3 2 2 1 1 1 1 1 1
11 9 7 7 10 10 12 11 9 10 8 9 8 6 3 1 1 2 2 3 4 3 3 4 5 6 6 7 7 7 8 6 5 4 3 3 2 2 3 3 2 1 1 1
10 10 8 8 10 12 10 10 9 10 11 12 9 5 2 3 5 3 2 4 4 3 2 3 4 6 6 7 7 7 7 6 6 5 4 3 2 2 2 2 1 1 1 2
9 10 10 12 12 12 12 11 12 12 15 14 8 5 3 4 7 5 3 3 2 3 3 3 4 5 6 6 6 6 6 5 5 5 4 4 3 2 1 1 2 1 1 1
11 14 12 11 10 10 11 12 8 8 9 11 11 7 5 4 5 5 5 3 2 4 4 5 5 4 5 5 5 5 6 6 5 4 3 3 3 2 2 1 1 1 1 1
12 10 13 12 10 13 12 11 9 8 9 10 11 6 4 6 5 4 4 4 4 3 4 5 5 6 6 5 5 4 4 4 4 4 4 2 2 2 2 1 2 2 1 2
9 8 12 15 12 10 11 11 9 8 10 10 10 7 6 6 7 5 5 5 4 3 4 4 3 6 5 5 5 4 4 4 4 4 3 3 2 2 2 1 1 1 2 3
9 6 10 10 7 9 12 13 11 9 9 9 10 8 4 7 8 7 5 4 5 3 4 4 4 5 4 4 4 4 4 4 4 4 4 3 3 2 2 1 1 2 3 4
5 7 10 13 15 15 16 16 13 12 11 11 11 12 8 6 7 7 6 4 4 1 3 4 4 3 4 4 4 3 4 3 3 4 4 3 3 2 3 2 3 3 3 4
6 10 13 16 18 17 17 16 14 12 12 13 13 12 9 7 6 5 4 3 4 2 2 3 4 4 3 3 3 3 3 2 3 3 3 3 3 2 2 2 3 3 3 3
5 9 14 16 16 15 15 14 12 11 12 13 12 11 8 8 7 4 4 4 5 3 3 2 3 4 3 3 2 2 2 2 2 3 3 3 3 2 2 3 3 3 3 3
8 10 12 13 15 15 10 10 11 10 8 8 9 9 8 9 8 6 4 4 5 3 3 2 1 3 2 2 2 2 1 1 2 3 3 3 3 2 2 3 2 2 2 3
9 10 8 11 12 9 6 8 9 10 7 7 8 8 9 10 7 4 5 5 4 3 3 2 2 2 2 3 3 2 1 2 2 2 3 2 2 2 1 1 1 2 2 2
6 7 7 8 10 9 8 8 8 9 7 8 10 10 9 9 6 4 8 8 5 3 2 2 1 1 2 3 3 2 2 2 2 1 1 1 1 1 1 1 1 1 2 2
3 5 7 9 11 8 7 10 9 7 5 10 10 10 10 9 6 5 8 8 6 5 2 1 2 2 2 2 2 2 2 1 1 1 1 0 1 1 1 0 1 1 2 3
7 7 8 10 10 6 7 10 8 5 6 11 10 10 9 7 5 5 7 6 5 4 2 1 1 2 2 2 2 2 2 2 1 1 1 0 1 1 1 1 1 2 2 3
8 7 7 7 8 5 11 10 7 6 7 8 9 8 7 6 5 6 6 4 5 4 2 1 1 2 2 2 2 2 2 1 1 1 1 1 1 2 1 1 2 2 2 3
5 5 6 6 6 7 9 8 7 7 8 8 8 8 6 5 6 6 5 4 4 3 1 0 1 2 2 2 2 2 1 1 1 2 1 1 1 1 1 1 2 2 2 2
7 7 8 8 8 9 9 8 9 10 9 8 7 7 7 6 6 5 4 4 3 2 1 1 1 1 2 2 2 2 2 2 2 2 1 1 1 2 2 2 2 2 1 2
10 9 10 11 10 9 9 10 11 11 10 9 8 7 6 6 5 5 4 4 2 1 1 1 1 2 2 3 3 3 2 2 3 2 2 2 3 3 1 1 1 2 2 1
9 8 8 9 9 10 12 13 12 11 10 8 8 8 6 5 5 4 3 2 1 1 1 1 1 2 2 3 3 3 3 3 3 3 3 3 3 2 2 2 1 1 0 1
Wind_Direction
243 245 260 271 278 290 291 285 285 282 271 265 267 258 231 220 226 223 199 177 174 167 154 147 145 144 143 143 146 151 154 148 154 160 172 195 197 182 178 191 176 194 198 204
251 253 264 279 291 291 290 293 295 297 294 282 278 272 253 233 209 196 202 187 176 161 151 151 155 156 153 155 157 156 158 158 162 164 178 190 182 193 189 178 164 190 206 213
274 295 306 303 297 299 296 297 301 304 301 284 277 265 257 241 193 185 197 190 168 165 159 162 167 167 164 163 166 165 161 160 158 163 171 176 172 204 206 200 182 191 197 215
280 292 298 292 291 297 296 302 300 296 293 289 287 282 254 233 202 198 200 197 159 153 155 164 168 171 170 165 165 163 158 158 158 170 185 196 202 202 203 193 170 171 191 204
288 293 293 291 300 305 300 303 293 284 278 278 279 278 268 201 227 200 179 174 116 138 146 162 168 167 169 162 164 167 155 155 161 175 178 192 206 200 173 150 155 172 165 188
287 286 284 295 303 303 304 302 292 281 275 274 283 285 286 206 258 241 108 111 100 119 129 145 152 153 157 157 158 158 153 153 157 168 170 183 194 188 176 173 196 205 178 194
294 290 297 304 302 303 306 309 306 302 290 287 298 286 287 84 72 336 115 137 122 124 133 144 145 151 155 153 157 158 158 157 162 168 173 185 200 202 197 201 197 209 231 238
305 302 316 318 309 308 304 301 294 296 298 301 304 296 316 41 60 38 92 104 103 115 126 138 149 154 160 154 155 158 162 162 166 169 178 191 192 215 208 185 213 212 227 240
314 302 304 307 309 304 302 298 303 298 291 290 286 277 290 59 48 21 39 70 72 103 107 117 126 137 148 151 154 153 158 158 166 172 179 180 184 206 240 188 210 228 224 253
317 309 302 304 303 294 301 307 313 302 299 298 297 300 320 32 30 15 9 26 38 82 95 115 113 119 122 132 139 147 155 163 168 168 178 182 180 192 214 217 205 239 245 260
322 309 303 305 303 308 309 308 309 301 290 292 292 302 355 12 21 15 16 18 27 39 93 105 119 129 128 126 132 142 144 153 161 169 168 179 186 196 211 219 216 220 243 251
335 314 300 296 292 297 301 305 307 305 297 296 294 297 12 10 18 17 22 10 19 64 74 88 111 119 129 140 142 147 158 159 161 167 163 175 191 207 233 247 245 234 252 256
337 316 304 303 303 318 320 315 309 299 295 293 292 294 341 4 2 3 10 15 14 40 75 81 97 104 123 137 144 152 157 158 163 162 173 180 191 207 225 237 249 245 249 255
303 287 288 293 299 309 307 307 311 308 297 294 297 302 324 347 355 358 352 7 4 7 96 114 110 127 146 141 143 154 154 164 171 170 172 178 186 203 220 231 245 249 250 255
316 292 293 291 291 291 291 298 303 299 296 296 303 308 319 339 335 346 349 2 353 351 89 129 145 141 134 134 135 141 150 163 169 160 163 171 171 193 223 234 246 253 260 268
316 296 299 293 290 292 294 299 303 304 304 305 308 310 333 338 335 349 7 11 346 357 54 81 124 122 119 116 122 125 154 169 166 171 174 169 168 178 215 236 243 257 274 290
294 296 297 294 304 297 290 307 309 308 314 312 312 320 340 335 335 350 7 24 359 6 48 45 125 111 112 121 128 138 135 176 183 182 181 172 179 196 223 254 264 281 287 291
271 288 289 292 301 290 309 331 326 317 330 356 355 344 339 332 341 2 28 30 3 7 47 42 59 104 127 129 135 134 188 205 196 191 189 180 193 202 231 288 327 317 305 294
242 264 284 291 294 290 303 337 334 319 317 8 351 340 346 348 353 22 22 16 7 14 68 92 110 131 132 145 153 170 210 191 173 179 197 196 217 225 237 254 283 288 294 293
249 246 264 283 292 293 324 346 344 319 304 1 352 344 345 345 335 343 359 360 5 7 34 77 126 128 134 155 153 168 181 160 162 163 166 237 243 238 237 237 245 273 277 275
290 271 270 280 283 283 348 348 349 332 331 342 345 342 342 345 333 321 333 349 1 355 15 63 104 126 138 154 160 163 165 163 175 159 144 175 253 255 207 200 253 264 268 285
297 295 291 291 283 291 358 354 359 335 325 329 334 339 343 333 331 329 333 345 344 336 346 22 127 145 153 166 173 164 157 150 156 142 143 155 234 267 223 225 250 257 263 277
296 299 292 286 290 318 336 338 329 325 319 323 326 324 320 317 322 326 325 328 319 304 311 285 167 155 148 164 171 171 137 140 154 149 154 171 194 283 276 248 254 250 245 258
303 309 293 285 286 306 314 318 327 325 319 320 319 314 306 304 310 315 319 312 301 300 307 284 177 159 146 163 185 163 161 171 179 162 158 198 218 243 240 263 270 271 275 279
291 297 294 289 299 310 311 319 317 316 319 319 322 313 303 301 305 311 316 311 296 304 308 278 217 180 182 181 173 168 170 178 182 179 198 224 227 229 217 249 286 290 356 0
272 275 281 291 314 310 304 308 312 312 312 319 322 315 310 313 308 303 301 294 266 276 274 252 233 206 190 182 178 174 176 178 181 193 210 234 234 222 225 218 217 41 128 142
Height
1480 1480 1478 1471 1467 1466 1466 1467 1466 1459 1450 1455 1457 1460 1459 1461 1463 1465 1468 1470 1473 1477 1480 1482 1485 1487 1489 1490 1492 1494 1495 1496 1497 1498 1500 1502 1503 1504 1504 1505 1505 1506 1506 1506
1476 1476 1467 1463 1462 1463 1464 1466 1463 1455 1450 1453 1456 1456 1454 1457 1458 1462 1465 1468 1471 1475 1478 1480 1483 1485 1486 1489 1491 1492 1493 1494 1496 1497 1498 1500 1500 1502 1502 1503 1503 1503 1503 1503
1475 1469 1463 1464 1465 1466 1466 1466 1464 1461 1454 1451 1454 1456 1453 1453 1455 1459 1462 1465 1468 1472 1475 1478 1480 1482 1484 1486 1488 1489 1491 1492 1494 1496 1497 1498 1499 1500 1501 1501 1501 1501 1501 1501
1469 1465 1465 1466 1466 1465 1469 1459 1459 1459 1462 1462 1457 1468 1458 1454 1455 1457 1460 1463 1466 1470 1473 1476 1478 1480 1482 1484 1486 1487 1489 1491 1492 1494 1495 1496 1497 1497 1498 1498 1499 1499 1499 1498
1470 1466 1466 1467 1465 1463 1464 1457 1457 1455 1457 1461 1458 1464 1461 1454 1458 1457 1459 1462 1465 1468 1472 1474 1476 1478 1480 1482 1484 1486 1487 1489 1491 1493 1494 1495 1495 1496 1496 1496 1497 1497 1496 1496
1467 1464 1463 1464 1462 1461 1459 1459 1455 1452 1454 1470 1462 1468 1470 1460 1461 1459 1459 1462 1464 1467 1470 1473 1475 1477 1479 1481 1483 1484 1485 1487 1488 1490 1492 1493 1493 1494 1494 1494 1495 1495 1495 1495
1472 1466 1462 1463 1465 1463 1463 1470 1479 1479 1477 1474 1459 1466 1469 1456 1457 1459 1459 1462 1465 1467 1469 1472 1474 1476 1478 1479 1481 1482 1484 1485 1487 1488 1490 1491 1491 1492 1493 1493 1493 1494 1494 1494
1485 1482 1468 1466 1468 1470 1467 1472 1488 1496 1491 1476 1463 1470 1465 1455 1456 1459 1460 1462 1464 1467 1468 1471 1472 1474 1476 1477 1479 1480 1483 1484 1485 1486 1488 1489 1490 1491 1491 1492 1492 1492 1493 1493
1491 1487 1472 1469 1467 1468 1470 1469 1465 1475 1475 1477 1471 1467 1462 1455 1459 1460 1461 1463 1464 1466 1467 1469 1471 1473 1475 1476 1478 1479 1481 1482 1484 1485 1487 1487 1488 1489 1489 1490 1491 1491 1491 1491
1487 1490 1476 1469 1467 1466 1466 1465 1471 1481 1490 1492 1479 1473 1472 1463 1462 1462 1464 1464 1465 1466 1467 1468 1470 1472 1473 1475 1477 1478 1479 1481 1482 1484 1485 1486 1487 1488 1488 1489 1489 1489 1490 1489
1488 1493 1484 1476 1475 1475 1471 1471 1472 1476 1479 1490 1490 1481 1464 1464 1463 1463 1465 1466 1466 1467 1467 1468 1469 1471 1473 1474 1476 1477 1479 1480 1481 1483 1484 1485 1486 1486 1487 1487 1487 1488 1488 1487
1493 1495 1494 1483 1472 1469 1470 1471 1473 1486 1485 1479 1484 1482 1463 1465 1464 1465 1465 1467 1467 1468 1467 1468 1469 1470 1472 1474 1475 1477 1478 1479 1480 1482 1482 1483 1484 1484 1485 1485 1486 1486 1486 1486
1499 1502 1504 1492 1482 1475 1475 1472 1470 1473 1477 1482 1487 1481 1464 1466 1466 1467 1467 1467 1468 1468 1467 1468 1469 1469 1472 1474 1475 1476 1477 1478 1480 1481 1481 1482 1482 1483 1483 1484 1484 1484 1484 1484
1501 1503 1507 1509 1498 1488 1484 1477 1473 1475 1481 1481 1478 1474 1469 1467 1468 1468 1468 1467 1468 1468 1467 1468 1469 1470 1471 1473 1475 1476 1477 1478 1479 1480 1480 1481 1481 1482 1482 1483 1483 1483 1483 1483
1500 1502 1499 1494 1487 1484 1481 1477 1474 1474 1475 1478 1474 1472 1470 1469 1469 1469 1469 1468 1468 1467 1467 1468 1469 1470 1472 1473 1474 1475 1476 1477 1478 1479 1479 1480 1480 1481 1481 1482 1482 1482 1481 1481
1501 1503 1499 1494 1486 1480 1479 1476 1473 1472 1472 1471 1470 1471 1469 1469 1469 1469 1469 1468 1468 1468 1467 1469 1469 1470 1471 1472 1473 1474 1475 1476 1477 1478 1479 1479 1480 1480 1481 1481 1481 1480 1480 1480
1501 1502 1502 1497 1486 1482 1483 1478 1475 1474 1471 1473 1476 1475 1471 1469 1469 1470 1469 1469 1469 1469 1468 1469 1470 1470 1471 1472 1472 1473 1474 1475 1476 1477 1478 1479 1479 1480 1480 1480 1480 1479 1479 1478
1501 1501 1501 1497 1494 1497 1485 1474 1474 1474 1473 1473 1474 1474 1473 1473 1471 1470 1471 1470 1470 1470 1469 1469 1470 1470 1471 1471 1472 1473 1474 1475 1476 1477 1478 1478 1479 1479 1479 1479 1478 1478 1477 1476
1494 1499 1501 1499 1497 1492 1480 1477 1476 1477 1476 1475 1475 1474 1473 1472 1470 1470 1470 1470 1470 1470 1470 1470 1470 1471 1471 1471 1472 1472 1474 1475 1475 1476 1477 1478 1478 1478 1478 1478 1477 1477 1476 1475
1491 1495 1500 1499 1502 1500 1487 1479 1476 1476 1479 1477 1476 1476 1475 1473 1472 1472 1472 1471 1471 1470 1470 1470 1471 1471 1471 1471 1472 1472 1473 1474 1475 1475 1476 1477 1477 1477 1477 1477 1476 1476 1475 1474
1496 1495 1497 1498 1500 1490 1484 1481 1479 1486 1488 1481 1479 1478 1477 1477 1477 1476 1474 1473 1472 1471 1470 1470 1471 1471 1471 1471 1472 1472 1473 1473 1474 1475 1475 1476 1476 1476 1477 1476 1476 1475 1475 1474
1497 1499 1497 1496 1498 1494 1484 1482 1485 1488 1483 1482 1480 1480 1479 1477 1476 1475 1474 1473 1472 1471 1470 1470 1470 1470 1471 1471 1471 1472 1472 1473 1474 1474 1475 1475 1476 1476 1476 1476 1475 1475 1474 1473
1496 1498 1497 1497 1496 1489 1486 1486 1486 1484 1483 1481 1480 1479 1478 1477 1475 1474 1473 1472 1471 1470 1470 1470 1470 1470 1470 1470 1471 1471 1472 1473 1473 1474 1474 1475 1475 1476 1476 1475 1475 1474 1473 1472
1494 1494 1493 1492 1487 1487 1486 1484 1484 1483 1482 1480 1479 1477 1477 1475 1474 1473 1472 1471 1470 1469 1469 1470 1470 1470 1470 1470 1470 1471 1472 1472 1473 1474 1474 1475 1475 1475 1475 1474 1474 1473 1472 1471
1498 1496 1494 1490 1487 1486 1484 1484 1483 1481 1480 1478 1477 1476 1475 1474 1472 1472 1471 1470 1468 1468 1468 1469 1469 1469 1469 1470 1470 1471 1471 1472 1473 1473 1474 1474 1474 1474 1474 1473 1473 1472 1471 1470
1495 1494 1494 1491 1488 1488 1485 1483 1481 1480 1478 1477 1475 1473 1472 1472 1471 1470 1469 1469 1468 1467 1467 1468 1468 1469 1469 1470 1470 1470 1471 1472 1472 1473 1473 1474 1474 1474 1473 1473 1472 1471 1470 1469